地点,時刻,積雪(cm)
みちのくトンネル（七戸側）,2022/02/26 23:00,230
みちのくトンネル（七戸側）,2022/02/27 00:00,230
みちのくトンネル（七戸側）,2022/02/27 01:00,229
みちのくトンネル（七戸側）,2022/02/27 02:00,228
みちのくトンネル（七戸側）,2022/02/27 03:00,228
みちのくトンネル（七戸側）,2022/02/27 04:00,228
みちのくトンネル（七戸側）,2022/02/27 05:00,227
みちのくトンネル（七戸側）,2022/02/27 06:00,226
みちのくトンネル（七戸側）,2022/02/27 07:00,226
みちのくトンネル（七戸側）,2022/02/27 08:00,226
みちのくトンネル（七戸側）,2022/02/27 09:00,226
みちのくトンネル（七戸側）,2022/02/27 10:00,225
みちのくトンネル（七戸側）,2022/02/27 11:00,224
みちのくトンネル（七戸側）,2022/02/27 12:00,222
みちのくトンネル（七戸側）,2022/02/27 13:00,221
みちのくトンネル（七戸側）,2022/02/27 14:00,222
みちのくトンネル（七戸側）,2022/02/27 15:00,222
みちのくトンネル（七戸側）,2022/02/27 16:00,222
みちのくトンネル（七戸側）,2022/02/27 17:00,222
みちのくトンネル（七戸側）,2022/02/27 18:00,222
みちのくトンネル（七戸側）,2022/02/27 19:00,221
みちのくトンネル（七戸側）,2022/02/27 20:00,221
みちのくトンネル（七戸側）,2022/02/27 21:00,220
みちのくトンネル（七戸側）,2022/02/27 22:00,220
みちのくトンネル（七戸側）,2022/02/27 23:00,220
みちのくトンネル（七戸側）,2022/02/28 00:00,220
みちのくトンネル（七戸側）,2022/02/28 01:00,221
みちのくトンネル（七戸側）,2022/02/28 02:00,221
みちのくトンネル（七戸側）,2022/02/28 03:00,222
みちのくトンネル（七戸側）,2022/02/28 04:00,222
みちのくトンネル（七戸側）,2022/02/28 05:00,221
みちのくトンネル（七戸側）,2022/02/28 06:00,221
みちのくトンネル（七戸側）,2022/02/28 07:00,221
みちのくトンネル（七戸側）,2022/02/28 08:00,221
みちのくトンネル（七戸側）,2022/02/28 09:00,220
みちのくトンネル（七戸側）,2022/02/28 10:00,220
みちのくトンネル（七戸側）,2022/02/28 11:00,220
みちのくトンネル（七戸側）,2022/02/28 12:00,220
みちのくトンネル（七戸側）,2022/02/28 13:00,219
みちのくトンネル（七戸側）,2022/02/28 14:00,219
みちのくトンネル（七戸側）,2022/02/28 15:00,219
みちのくトンネル（七戸側）,2022/02/28 16:00,218
みちのくトンネル（七戸側）,2022/02/28 17:00,218
みちのくトンネル（七戸側）,2022/02/28 18:00,218
みちのくトンネル（七戸側）,2022/02/28 19:00,218
みちのくトンネル（七戸側）,2022/02/28 20:00,218
みちのくトンネル（七戸側）,2022/02/28 21:00,217
みちのくトンネル（七戸側）,2022/02/28 22:00,217
みちのくトンネル（七戸側）,2022/02/28 23:00,217
みちのくトンネル（七戸側）,2022/03/01 00:00,217
みちのくトンネル（七戸側）,2022/03/01 01:00,217
みちのくトンネル（七戸側）,2022/03/01 02:00,217
みちのくトンネル（七戸側）,2022/03/01 03:00,217
みちのくトンネル（七戸側）,2022/03/01 04:00,217
みちのくトンネル（七戸側）,2022/03/01 05:00,216
みちのくトンネル（七戸側）,2022/03/01 06:00,216
みちのくトンネル（七戸側）,2022/03/01 07:00,216
みちのくトンネル（七戸側）,2022/03/01 08:00,216
みちのくトンネル（七戸側）,2022/03/01 09:00,216
みちのくトンネル（七戸側）,2022/03/01 10:00,216
みちのくトンネル（七戸側）,2022/03/01 11:00,216
みちのくトンネル（七戸側）,2022/03/01 12:00,215
みちのくトンネル（七戸側）,2022/03/01 13:00,215
みちのくトンネル（七戸側）,2022/03/01 14:00,214
みちのくトンネル（七戸側）,2022/03/01 15:00,214
みちのくトンネル（七戸側）,2022/03/01 16:00,214
みちのくトンネル（七戸側）,2022/03/01 17:00,214
みちのくトンネル（七戸側）,2022/03/01 18:00,214
みちのくトンネル（七戸側）,2022/03/01 19:00,214
みちのくトンネル（七戸側）,2022/03/01 20:00,214
みちのくトンネル（七戸側）,2022/03/01 21:00,214
みちのくトンネル（七戸側）,2022/03/01 22:00,214
みちのくトンネル（七戸側）,2022/03/01 23:00,214
みちのくトンネル（七戸側）,2022/03/02 00:00,214
みちのくトンネル（七戸側）,2022/03/02 01:00,214
みちのくトンネル（七戸側）,2022/03/02 02:00,214
みちのくトンネル（七戸側）,2022/03/02 03:00,214
みちのくトンネル（七戸側）,2022/03/02 04:00,214
みちのくトンネル（七戸側）,2022/03/02 05:00,213
みちのくトンネル（七戸側）,2022/03/02 06:00,214
みちのくトンネル（七戸側）,2022/03/02 07:00,213
みちのくトンネル（七戸側）,2022/03/02 08:00,213
みちのくトンネル（七戸側）,2022/03/02 09:00,213
みちのくトンネル（七戸側）,2022/03/02 10:00,213
みちのくトンネル（七戸側）,2022/03/02 11:00,213
みちのくトンネル（七戸側）,2022/03/02 12:00,213
みちのくトンネル（七戸側）,2022/03/02 13:00,212
みちのくトンネル（七戸側）,2022/03/02 14:00,212
みちのくトンネル（七戸側）,2022/03/02 15:00,212
みちのくトンネル（七戸側）,2022/03/02 16:00,212
みちのくトンネル（七戸側）,2022/03/02 17:00,212
みちのくトンネル（七戸側）,2022/03/02 18:00,212
みちのくトンネル（七戸側）,2022/03/02 19:00,212
みちのくトンネル（七戸側）,2022/03/02 20:00,211
みちのくトンネル（七戸側）,2022/03/02 21:00,211
みちのくトンネル（七戸側）,2022/03/02 22:00,211
みちのくトンネル（七戸側）,2022/03/02 23:00,211
みちのくトンネル（七戸側）,2022/03/03 00:00,211
みちのくトンネル（七戸側）,2022/03/03 01:00,211
みちのくトンネル（七戸側）,2022/03/03 02:00,211
みちのくトンネル（七戸側）,2022/03/03 03:00,211
みちのくトンネル（七戸側）,2022/03/03 04:00,211
みちのくトンネル（七戸側）,2022/03/03 05:00,210
みちのくトンネル（七戸側）,2022/03/03 06:00,211
みちのくトンネル（七戸側）,2022/03/03 07:00,212
みちのくトンネル（七戸側）,2022/03/03 08:00,212
みちのくトンネル（七戸側）,2022/03/03 09:00,216
みちのくトンネル（七戸側）,2022/03/03 10:00,216
みちのくトンネル（七戸側）,2022/03/03 11:00,214
みちのくトンネル（七戸側）,2022/03/03 12:00,213
みちのくトンネル（七戸側）,2022/03/03 13:00,216
みちのくトンネル（七戸側）,2022/03/03 14:00,216
みちのくトンネル（七戸側）,2022/03/03 15:00,216
みちのくトンネル（七戸側）,2022/03/03 16:00,216
みちのくトンネル（七戸側）,2022/03/03 17:00,216
みちのくトンネル（七戸側）,2022/03/03 18:00,216
みちのくトンネル（七戸側）,2022/03/03 19:00,216
みちのくトンネル（七戸側）,2022/03/03 20:00,215
みちのくトンネル（七戸側）,2022/03/03 21:00,215
みちのくトンネル（七戸側）,2022/03/03 22:00,215
みちのくトンネル（七戸側）,2022/03/03 23:00,215
みちのくトンネル（七戸側）,2022/03/04 00:00,214
みちのくトンネル（七戸側）,2022/03/04 01:00,214
みちのくトンネル（七戸側）,2022/03/04 02:00,214
みちのくトンネル（七戸側）,2022/03/04 03:00,214
みちのくトンネル（七戸側）,2022/03/04 04:00,214
みちのくトンネル（七戸側）,2022/03/04 05:00,214
みちのくトンネル（七戸側）,2022/03/04 06:00,214
みちのくトンネル（七戸側）,2022/03/04 07:00,214
みちのくトンネル（七戸側）,2022/03/04 08:00,213
みちのくトンネル（七戸側）,2022/03/04 09:00,213
みちのくトンネル（七戸側）,2022/03/04 10:00,213
みちのくトンネル（七戸側）,2022/03/04 11:00,213
みちのくトンネル（七戸側）,2022/03/04 12:00,213
みちのくトンネル（七戸側）,2022/03/04 13:00,212
みちのくトンネル（七戸側）,2022/03/04 14:00,212
みちのくトンネル（七戸側）,2022/03/04 15:00,212
みちのくトンネル（七戸側）,2022/03/04 16:00,212
みちのくトンネル（七戸側）,2022/03/04 17:00,212
みちのくトンネル（七戸側）,2022/03/04 18:00,212
みちのくトンネル（七戸側）,2022/03/04 19:00,212
みちのくトンネル（七戸側）,2022/03/04 20:00,212
みちのくトンネル（七戸側）,2022/03/04 21:00,212
みちのくトンネル（七戸側）,2022/03/04 22:00,212
みちのくトンネル（七戸側）,2022/03/04 23:00,211
みちのくトンネル（七戸側）,2022/03/05 00:00,211
みちのくトンネル（七戸側）,2022/03/05 01:00,211
みちのくトンネル（七戸側）,2022/03/05 02:00,211
みちのくトンネル（七戸側）,2022/03/05 03:00,211
みちのくトンネル（七戸側）,2022/03/05 04:00,211
みちのくトンネル（七戸側）,2022/03/05 05:00,211
みちのくトンネル（七戸側）,2022/03/05 06:00,211
みちのくトンネル（七戸側）,2022/03/05 07:00,211
みちのくトンネル（七戸側）,2022/03/05 08:00,210
みちのくトンネル（七戸側）,2022/03/05 09:00,210
みちのくトンネル（七戸側）,2022/03/05 10:00,210
みちのくトンネル（七戸側）,2022/03/05 11:00,210
みちのくトンネル（七戸側）,2022/03/05 12:00,210
みちのくトンネル（七戸側）,2022/03/05 13:00,209
みちのくトンネル（七戸側）,2022/03/05 14:00,208
みちのくトンネル（七戸側）,2022/03/05 15:00,208
みちのくトンネル（七戸側）,2022/03/05 16:00,208
みちのくトンネル（七戸側）,2022/03/05 17:00,210
みちのくトンネル（七戸側）,2022/03/05 18:00,212
みちのくトンネル（七戸側）,2022/03/05 19:00,213
みちのくトンネル（七戸側）,2022/03/05 20:00,212
みちのくトンネル（七戸側）,2022/03/05 21:00,212
みちのくトンネル（七戸側）,2022/03/05 22:00,214
みちのくトンネル（七戸側）,2022/03/05 23:00,214
みちのくトンネル（七戸側）,2022/03/06 00:00,214
みちのくトンネル（七戸側）,2022/03/06 01:00,214
みちのくトンネル（七戸側）,2022/03/06 02:00,214
みちのくトンネル（七戸側）,2022/03/06 03:00,214
みちのくトンネル（七戸側）,2022/03/06 04:00,214
みちのくトンネル（七戸側）,2022/03/06 05:00,216
みちのくトンネル（七戸側）,2022/03/06 06:00,216
みちのくトンネル（七戸側）,2022/03/06 07:00,218
みちのくトンネル（七戸側）,2022/03/06 08:00,217
みちのくトンネル（七戸側）,2022/03/06 09:00,217
みちのくトンネル（七戸側）,2022/03/06 10:00,219
みちのくトンネル（七戸側）,2022/03/06 11:00,220
みちのくトンネル（七戸側）,2022/03/06 12:00,219
みちのくトンネル（七戸側）,2022/03/06 13:00,222
みちのくトンネル（七戸側）,2022/03/06 14:00,225
みちのくトンネル（七戸側）,2022/03/06 15:00,226
みちのくトンネル（七戸側）,2022/03/06 16:00,227
みちのくトンネル（七戸側）,2022/03/06 17:00,229
みちのくトンネル（七戸側）,2022/03/06 18:00,228
みちのくトンネル（七戸側）,2022/03/06 19:00,229
みちのくトンネル（七戸側）,2022/03/06 20:00,231
みちのくトンネル（七戸側）,2022/03/06 21:00,231
みちのくトンネル（七戸側）,2022/03/06 22:00,230
みちのくトンネル（七戸側）,2022/03/06 23:00,230
みちのくトンネル（七戸側）,2022/03/07 00:00,229
みちのくトンネル（七戸側）,2022/03/07 01:00,229
みちのくトンネル（七戸側）,2022/03/07 02:00,229
みちのくトンネル（七戸側）,2022/03/07 03:00,228
みちのくトンネル（七戸側）,2022/03/07 04:00,228
みちのくトンネル（七戸側）,2022/03/07 05:00,228
みちのくトンネル（七戸側）,2022/03/07 06:00,228
みちのくトンネル（七戸側）,2022/03/07 07:00,227
みちのくトンネル（七戸側）,2022/03/07 08:00,227
みちのくトンネル（七戸側）,2022/03/07 09:00,227
みちのくトンネル（七戸側）,2022/03/07 10:00,227
みちのくトンネル（七戸側）,2022/03/07 11:00,226
みちのくトンネル（七戸側）,2022/03/07 12:00,225
みちのくトンネル（七戸側）,2022/03/07 13:00,224
みちのくトンネル（七戸側）,2022/03/07 14:00,223
みちのくトンネル（七戸側）,2022/03/07 15:00,222
みちのくトンネル（七戸側）,2022/03/07 16:00,222
みちのくトンネル（七戸側）,2022/03/07 17:00,223
みちのくトンネル（七戸側）,2022/03/07 18:00,222
みちのくトンネル（七戸側）,2022/03/07 19:00,223
みちのくトンネル（七戸側）,2022/03/07 20:00,222
みちのくトンネル（七戸側）,2022/03/07 21:00,222
みちのくトンネル（七戸側）,2022/03/07 22:00,222
みちのくトンネル（七戸側）,2022/03/07 23:00,222
みちのくトンネル（七戸側）,2022/03/08 00:00,222
みちのくトンネル（七戸側）,2022/03/08 01:00,222
みちのくトンネル（七戸側）,2022/03/08 02:00,221
みちのくトンネル（七戸側）,2022/03/08 03:00,221
みちのくトンネル（七戸側）,2022/03/08 04:00,221
みちのくトンネル（七戸側）,2022/03/08 05:00,221
みちのくトンネル（七戸側）,2022/03/08 06:00,221
みちのくトンネル（七戸側）,2022/03/08 07:00,221
みちのくトンネル（七戸側）,2022/03/08 08:00,221
みちのくトンネル（七戸側）,2022/03/08 09:00,221
みちのくトンネル（七戸側）,2022/03/08 10:00,221
みちのくトンネル（七戸側）,2022/03/08 11:00,220
みちのくトンネル（七戸側）,2022/03/08 12:00,220
みちのくトンネル（七戸側）,2022/03/08 13:00,220
みちのくトンネル（七戸側）,2022/03/08 14:00,220
みちのくトンネル（七戸側）,2022/03/08 15:00,219
みちのくトンネル（七戸側）,2022/03/08 16:00,219
みちのくトンネル（七戸側）,2022/03/08 17:00,219
みちのくトンネル（七戸側）,2022/03/08 18:00,219
みちのくトンネル（七戸側）,2022/03/08 19:00,218
みちのくトンネル（七戸側）,2022/03/08 20:00,218
みちのくトンネル（七戸側）,2022/03/08 21:00,218
みちのくトンネル（七戸側）,2022/03/08 22:00,218
みちのくトンネル（七戸側）,2022/03/08 23:00,218
みちのくトンネル（七戸側）,2022/03/09 00:00,218
みちのくトンネル（七戸側）,2022/03/09 01:00,218
みちのくトンネル（七戸側）,2022/03/09 02:00,218
みちのくトンネル（七戸側）,2022/03/09 03:00,218
みちのくトンネル（七戸側）,2022/03/09 04:00,218
みちのくトンネル（七戸側）,2022/03/09 05:00,217
みちのくトンネル（七戸側）,2022/03/09 06:00,217
みちのくトンネル（七戸側）,2022/03/09 07:00,217
みちのくトンネル（七戸側）,2022/03/09 08:00,217
みちのくトンネル（七戸側）,2022/03/09 09:00,217
みちのくトンネル（七戸側）,2022/03/09 10:00,217
みちのくトンネル（七戸側）,2022/03/09 11:00,217
みちのくトンネル（七戸側）,2022/03/09 12:00,216
みちのくトンネル（七戸側）,2022/03/09 13:00,215
みちのくトンネル（七戸側）,2022/03/09 14:00,215
みちのくトンネル（七戸側）,2022/03/09 15:00,214
みちのくトンネル（七戸側）,2022/03/09 16:00,214
みちのくトンネル（七戸側）,2022/03/09 17:00,214
みちのくトンネル（七戸側）,2022/03/09 18:00,213
みちのくトンネル（七戸側）,2022/03/09 19:00,214
みちのくトンネル（七戸側）,2022/03/09 20:00,213
みちのくトンネル（七戸側）,2022/03/09 21:00,214
みちのくトンネル（七戸側）,2022/03/09 22:00,214
みちのくトンネル（七戸側）,2022/03/09 23:00,213
みちのくトンネル（七戸側）,2022/03/10 00:00,213
みちのくトンネル（七戸側）,2022/03/10 01:00,213
みちのくトンネル（七戸側）,2022/03/10 02:00,213
みちのくトンネル（七戸側）,2022/03/10 03:00,213
みちのくトンネル（七戸側）,2022/03/10 04:00,213
みちのくトンネル（七戸側）,2022/03/10 05:00,213
みちのくトンネル（七戸側）,2022/03/10 06:00,213
みちのくトンネル（七戸側）,2022/03/10 07:00,213
みちのくトンネル（七戸側）,2022/03/10 08:00,213
みちのくトンネル（七戸側）,2022/03/10 09:00,213
みちのくトンネル（七戸側）,2022/03/10 10:00,213
みちのくトンネル（七戸側）,2022/03/10 11:00,213
みちのくトンネル（七戸側）,2022/03/10 12:00,212
みちのくトンネル（七戸側）,2022/03/10 13:00,212
みちのくトンネル（七戸側）,2022/03/10 14:00,211
みちのくトンネル（七戸側）,2022/03/10 15:00,211
みちのくトンネル（七戸側）,2022/03/10 16:00,210
みちのくトンネル（七戸側）,2022/03/10 17:00,210
みちのくトンネル（七戸側）,2022/03/10 18:00,210
みちのくトンネル（七戸側）,2022/03/10 19:00,210
みちのくトンネル（七戸側）,2022/03/10 20:00,210
みちのくトンネル（七戸側）,2022/03/10 21:00,209
みちのくトンネル（七戸側）,2022/03/10 22:00,209
みちのくトンネル（七戸側）,2022/03/10 23:00,210
みちのくトンネル（七戸側）,2022/03/11 00:00,209
みちのくトンネル（七戸側）,2022/03/11 01:00,209
みちのくトンネル（七戸側）,2022/03/11 02:00,209
みちのくトンネル（七戸側）,2022/03/11 03:00,209
みちのくトンネル（七戸側）,2022/03/11 04:00,209
みちのくトンネル（七戸側）,2022/03/11 05:00,209
みちのくトンネル（七戸側）,2022/03/11 06:00,209
みちのくトンネル（七戸側）,2022/03/11 07:00,209
みちのくトンネル（七戸側）,2022/03/11 08:00,209
みちのくトンネル（七戸側）,2022/03/11 09:00,209
みちのくトンネル（七戸側）,2022/03/11 10:00,209
みちのくトンネル（七戸側）,2022/03/11 11:00,209
みちのくトンネル（七戸側）,2022/03/11 12:00,208
みちのくトンネル（七戸側）,2022/03/11 13:00,208
みちのくトンネル（七戸側）,2022/03/11 14:00,207
みちのくトンネル（七戸側）,2022/03/11 15:00,207
みちのくトンネル（七戸側）,2022/03/11 16:00,207
みちのくトンネル（七戸側）,2022/03/11 17:00,206
みちのくトンネル（七戸側）,2022/03/11 18:00,206
みちのくトンネル（七戸側）,2022/03/11 19:00,206
みちのくトンネル（七戸側）,2022/03/11 20:00,206
みちのくトンネル（七戸側）,2022/03/11 21:00,205
みちのくトンネル（七戸側）,2022/03/11 22:00,205
みちのくトンネル（七戸側）,2022/03/11 23:00,205
みちのくトンネル（七戸側）,2022/03/12 01:00,205
みちのくトンネル（七戸側）,2022/03/12 02:00,205
みちのくトンネル（七戸側）,2022/03/12 03:00,205
みちのくトンネル（七戸側）,2022/03/12 04:00,205
みちのくトンネル（七戸側）,2022/03/12 05:00,205
みちのくトンネル（七戸側）,2022/03/12 06:00,205
みちのくトンネル（七戸側）,2022/03/12 07:00,205
みちのくトンネル（七戸側）,2022/03/12 08:00,204
みちのくトンネル（七戸側）,2022/03/12 09:00,204
みちのくトンネル（七戸側）,2022/03/12 10:00,204
みちのくトンネル（七戸側）,2022/03/12 11:00,204
みちのくトンネル（七戸側）,2022/03/12 12:00,204
みちのくトンネル（七戸側）,2022/03/12 13:00,203
みちのくトンネル（七戸側）,2022/03/12 14:00,203
みちのくトンネル（七戸側）,2022/03/12 15:00,202
みちのくトンネル（七戸側）,2022/03/12 16:00,201
みちのくトンネル（七戸側）,2022/03/12 17:00,201
みちのくトンネル（七戸側）,2022/03/12 18:00,201
みちのくトンネル（七戸側）,2022/03/12 19:00,201
みちのくトンネル（七戸側）,2022/03/12 20:00,201
みちのくトンネル（七戸側）,2022/03/12 21:00,201
みちのくトンネル（七戸側）,2022/03/12 22:00,201
みちのくトンネル（七戸側）,2022/03/12 23:00,201
みちのくトンネル（七戸側）,2022/03/13 00:00,201
みちのくトンネル（七戸側）,2022/03/13 01:00,201
みちのくトンネル（七戸側）,2022/03/13 02:00,201
みちのくトンネル（七戸側）,2022/03/13 03:00,201
みちのくトンネル（七戸側）,2022/03/13 04:00,200
みちのくトンネル（七戸側）,2022/03/13 05:00,200
みちのくトンネル（七戸側）,2022/03/13 06:00,200
みちのくトンネル（七戸側）,2022/03/13 07:00,200
みちのくトンネル（七戸側）,2022/03/13 08:00,200
みちのくトンネル（七戸側）,2022/03/13 09:00,200
みちのくトンネル（七戸側）,2022/03/13 10:00,199
みちのくトンネル（七戸側）,2022/03/13 11:00,199
みちのくトンネル（七戸側）,2022/03/13 12:00,199
みちのくトンネル（七戸側）,2022/03/13 13:00,200
みちのくトンネル（七戸側）,2022/03/13 14:00,199
みちのくトンネル（七戸側）,2022/03/13 15:00,199
みちのくトンネル（七戸側）,2022/03/13 16:00,199
みちのくトンネル（七戸側）,2022/03/13 17:00,199
みちのくトンネル（七戸側）,2022/03/13 18:00,199
みちのくトンネル（七戸側）,2022/03/13 19:00,199
みちのくトンネル（七戸側）,2022/03/13 20:00,199
みちのくトンネル（七戸側）,2022/03/13 21:00,199
みちのくトンネル（七戸側）,2022/03/13 22:00,198
みちのくトンネル（七戸側）,2022/03/13 23:00,198
みちのくトンネル（七戸側）,2022/03/14 00:00,198
みちのくトンネル（七戸側）,2022/03/14 01:00,198
みちのくトンネル（七戸側）,2022/03/14 02:00,198
みちのくトンネル（七戸側）,2022/03/14 03:00,198
みちのくトンネル（七戸側）,2022/03/14 04:00,197
みちのくトンネル（七戸側）,2022/03/14 05:00,197
みちのくトンネル（七戸側）,2022/03/14 06:00,197
みちのくトンネル（七戸側）,2022/03/14 07:00,197
みちのくトンネル（七戸側）,2022/03/14 08:00,197
みちのくトンネル（七戸側）,2022/03/14 09:00,197
みちのくトンネル（七戸側）,2022/03/14 10:00,198
みちのくトンネル（七戸側）,2022/03/14 11:00,197
みちのくトンネル（七戸側）,2022/03/14 12:00,197
みちのくトンネル（七戸側）,2022/03/14 13:00,196
みちのくトンネル（七戸側）,2022/03/14 14:00,196
みちのくトンネル（七戸側）,2022/03/14 15:00,196
みちのくトンネル（七戸側）,2022/03/14 16:00,195
みちのくトンネル（七戸側）,2022/03/14 17:00,195
みちのくトンネル（七戸側）,2022/03/14 18:00,195
みちのくトンネル（七戸側）,2022/03/14 19:00,195
みちのくトンネル（七戸側）,2022/03/14 20:00,195
みちのくトンネル（七戸側）,2022/03/14 21:00,195
みちのくトンネル（七戸側）,2022/03/14 22:00,195
みちのくトンネル（七戸側）,2022/03/14 23:00,195
みちのくトンネル（七戸側）,2022/03/15 00:00,195
みちのくトンネル（七戸側）,2022/03/15 01:00,196
みちのくトンネル（七戸側）,2022/03/15 02:00,196
みちのくトンネル（七戸側）,2022/03/15 03:00,195
みちのくトンネル（七戸側）,2022/03/15 04:00,196
みちのくトンネル（七戸側）,2022/03/15 05:00,199
みちのくトンネル（七戸側）,2022/03/15 06:00,204
みちのくトンネル（七戸側）,2022/03/15 07:00,204
みちのくトンネル（七戸側）,2022/03/15 08:00,204
みちのくトンネル（七戸側）,2022/03/15 09:00,204
みちのくトンネル（七戸側）,2022/03/15 10:00,204
みちのくトンネル（七戸側）,2022/03/15 11:00,203
みちのくトンネル（七戸側）,2022/03/15 12:00,201
みちのくトンネル（七戸側）,2022/03/15 13:00,195
みちのくトンネル（七戸側）,2022/03/15 14:00,193
みちのくトンネル（七戸側）,2022/03/15 15:00,193
みちのくトンネル（七戸側）,2022/03/15 16:00,193
みちのくトンネル（七戸側）,2022/03/15 17:00,193
みちのくトンネル（七戸側）,2022/03/15 18:00,193
みちのくトンネル（七戸側）,2022/03/15 19:00,193
みちのくトンネル（七戸側）,2022/03/15 20:00,192
みちのくトンネル（七戸側）,2022/03/15 21:00,192
みちのくトンネル（七戸側）,2022/03/15 22:00,192
みちのくトンネル（七戸側）,2022/03/15 23:00,192
みちのくトンネル（七戸側）,2022/03/16 00:00,192
みちのくトンネル（七戸側）,2022/03/16 01:00,192
みちのくトンネル（七戸側）,2022/03/16 02:00,192
みちのくトンネル（七戸側）,2022/03/16 03:00,192
みちのくトンネル（七戸側）,2022/03/16 04:00,192
みちのくトンネル（七戸側）,2022/03/16 05:00,192
みちのくトンネル（七戸側）,2022/03/16 06:00,192
みちのくトンネル（七戸側）,2022/03/16 07:00,192
みちのくトンネル（七戸側）,2022/03/16 08:00,192
みちのくトンネル（七戸側）,2022/03/16 09:00,192
みちのくトンネル（七戸側）,2022/03/16 10:00,191
みちのくトンネル（七戸側）,2022/03/16 11:00,191
みちのくトンネル（七戸側）,2022/03/16 12:00,191
みちのくトンネル（七戸側）,2022/03/16 13:00,189
みちのくトンネル（七戸側）,2022/03/16 14:00,188
みちのくトンネル（七戸側）,2022/03/16 15:00,188
みちのくトンネル（七戸側）,2022/03/16 16:00,187
みちのくトンネル（七戸側）,2022/03/16 17:00,188
みちのくトンネル（七戸側）,2022/03/16 18:00,188
みちのくトンネル（七戸側）,2022/03/16 19:00,188
みちのくトンネル（七戸側）,2022/03/16 20:00,187
みちのくトンネル（七戸側）,2022/03/16 21:00,187
みちのくトンネル（七戸側）,2022/03/16 22:00,187
みちのくトンネル（七戸側）,2022/03/16 23:00,187
みちのくトンネル（七戸側）,2022/03/17 00:00,188
みちのくトンネル（七戸側）,2022/03/17 01:00,188
みちのくトンネル（七戸側）,2022/03/17 02:00,188
みちのくトンネル（七戸側）,2022/03/17 03:00,188
みちのくトンネル（七戸側）,2022/03/17 04:00,188
みちのくトンネル（七戸側）,2022/03/17 05:00,188
みちのくトンネル（七戸側）,2022/03/17 06:00,188
みちのくトンネル（七戸側）,2022/03/17 07:00,189
みちのくトンネル（七戸側）,2022/03/17 08:00,188
みちのくトンネル（七戸側）,2022/03/17 09:00,188
みちのくトンネル（七戸側）,2022/03/17 10:00,188
みちのくトンネル（七戸側）,2022/03/17 11:00,187
みちのくトンネル（七戸側）,2022/03/17 12:00,186
みちのくトンネル（七戸側）,2022/03/17 13:00,185
みちのくトンネル（七戸側）,2022/03/17 14:00,185
みちのくトンネル（七戸側）,2022/03/17 15:00,184
みちのくトンネル（七戸側）,2022/03/17 16:00,184
みちのくトンネル（七戸側）,2022/03/17 17:00,184
みちのくトンネル（七戸側）,2022/03/17 18:00,185
みちのくトンネル（七戸側）,2022/03/17 19:00,185
みちのくトンネル（七戸側）,2022/03/17 20:00,185
みちのくトンネル（七戸側）,2022/03/17 21:00,185
みちのくトンネル（七戸側）,2022/03/17 22:00,185
みちのくトンネル（七戸側）,2022/03/17 23:00,185
みちのくトンネル（七戸側）,2022/03/18 00:00,185
みちのくトンネル（七戸側）,2022/03/18 01:00,185
みちのくトンネル（七戸側）,2022/03/18 02:00,185
みちのくトンネル（七戸側）,2022/03/18 03:00,185
みちのくトンネル（七戸側）,2022/03/18 04:00,185
みちのくトンネル（七戸側）,2022/03/18 05:00,185
みちのくトンネル（七戸側）,2022/03/18 06:00,185
みちのくトンネル（七戸側）,2022/03/18 07:00,184
みちのくトンネル（七戸側）,2022/03/18 08:00,184
みちのくトンネル（七戸側）,2022/03/18 09:00,184
みちのくトンネル（七戸側）,2022/03/18 10:00,184
みちのくトンネル（七戸側）,2022/03/18 11:00,184
みちのくトンネル（七戸側）,2022/03/18 12:00,183
みちのくトンネル（七戸側）,2022/03/18 13:00,183
みちのくトンネル（七戸側）,2022/03/18 14:00,182
みちのくトンネル（七戸側）,2022/03/18 15:00,182
みちのくトンネル（七戸側）,2022/03/18 16:00,181
みちのくトンネル（七戸側）,2022/03/18 17:00,181
みちのくトンネル（七戸側）,2022/03/18 18:00,181
みちのくトンネル（七戸側）,2022/03/18 19:00,182
みちのくトンネル（七戸側）,2022/03/18 20:00,182
みちのくトンネル（七戸側）,2022/03/18 21:00,182
みちのくトンネル（七戸側）,2022/03/18 22:00,184
みちのくトンネル（七戸側）,2022/03/18 23:00,189
みちのくトンネル（七戸側）,2022/03/19 00:00,192
みちのくトンネル（七戸側）,2022/03/19 01:00,195
みちのくトンネル（七戸側）,2022/03/19 02:00,199
みちのくトンネル（七戸側）,2022/03/19 03:00,203
みちのくトンネル（七戸側）,2022/03/19 04:00,208
みちのくトンネル（七戸側）,2022/03/19 05:00,212
みちのくトンネル（七戸側）,2022/03/19 06:00,215
みちのくトンネル（七戸側）,2022/03/19 07:00,218
みちのくトンネル（七戸側）,2022/03/19 08:00,219
みちのくトンネル（七戸側）,2022/03/19 09:00,221
みちのくトンネル（七戸側）,2022/03/19 10:00,223
みちのくトンネル（七戸側）,2022/03/19 11:00,224
みちのくトンネル（七戸側）,2022/03/19 12:00,208
みちのくトンネル（七戸側）,2022/03/19 13:00,208
みちのくトンネル（七戸側）,2022/03/19 14:00,207
みちのくトンネル（七戸側）,2022/03/19 15:00,206
みちのくトンネル（七戸側）,2022/03/19 16:00,206
みちのくトンネル（七戸側）,2022/03/19 17:00,206
みちのくトンネル（七戸側）,2022/03/19 18:00,206
みちのくトンネル（七戸側）,2022/03/19 19:00,205
みちのくトンネル（七戸側）,2022/03/19 20:00,204
みちのくトンネル（七戸側）,2022/03/19 21:00,204
みちのくトンネル（七戸側）,2022/03/19 22:00,205
みちのくトンネル（七戸側）,2022/03/19 23:00,204
みちのくトンネル（七戸側）,2022/03/20 00:00,204
みちのくトンネル（七戸側）,2022/03/20 01:00,204
みちのくトンネル（七戸側）,2022/03/20 02:00,204
みちのくトンネル（七戸側）,2022/03/20 03:00,204
みちのくトンネル（七戸側）,2022/03/20 04:00,204
みちのくトンネル（七戸側）,2022/03/20 05:00,204
みちのくトンネル（七戸側）,2022/03/20 06:00,204
みちのくトンネル（七戸側）,2022/03/20 07:00,204
みちのくトンネル（七戸側）,2022/03/20 08:00,204
みちのくトンネル（七戸側）,2022/03/20 09:00,205
みちのくトンネル（七戸側）,2022/03/20 10:00,204
みちのくトンネル（七戸側）,2022/03/20 11:00,203
みちのくトンネル（七戸側）,2022/03/20 12:00,203
みちのくトンネル（七戸側）,2022/03/20 13:00,202
みちのくトンネル（七戸側）,2022/03/20 14:00,201
みちのくトンネル（七戸側）,2022/03/20 15:00,200
みちのくトンネル（七戸側）,2022/03/20 16:00,200
みちのくトンネル（七戸側）,2022/03/20 17:00,199
みちのくトンネル（七戸側）,2022/03/20 18:00,199
みちのくトンネル（七戸側）,2022/03/20 19:00,198
みちのくトンネル（七戸側）,2022/03/20 20:00,198
みちのくトンネル（七戸側）,2022/03/20 21:00,198
みちのくトンネル（七戸側）,2022/03/20 22:00,198
みちのくトンネル（七戸側）,2022/03/20 23:00,198
みちのくトンネル（七戸側）,2022/03/21 00:00,197
みちのくトンネル（七戸側）,2022/03/21 02:00,197
みちのくトンネル（七戸側）,2022/03/21 03:00,197
みちのくトンネル（七戸側）,2022/03/21 04:00,197
みちのくトンネル（七戸側）,2022/03/21 05:00,196
みちのくトンネル（七戸側）,2022/03/21 06:00,197
みちのくトンネル（七戸側）,2022/03/21 07:00,196
みちのくトンネル（七戸側）,2022/03/21 08:00,196
みちのくトンネル（七戸側）,2022/03/21 09:00,196
みちのくトンネル（七戸側）,2022/03/21 10:00,196
みちのくトンネル（七戸側）,2022/03/21 11:00,197
みちのくトンネル（七戸側）,2022/03/21 12:00,196
みちのくトンネル（七戸側）,2022/03/21 13:00,196
みちのくトンネル（七戸側）,2022/03/21 14:00,195
みちのくトンネル（七戸側）,2022/03/21 15:00,195
みちのくトンネル（七戸側）,2022/03/21 16:00,195
みちのくトンネル（七戸側）,2022/03/21 17:00,195
みちのくトンネル（七戸側）,2022/03/21 18:00,195
みちのくトンネル（七戸側）,2022/03/21 19:00,194
みちのくトンネル（七戸側）,2022/03/21 20:00,194
みちのくトンネル（七戸側）,2022/03/21 21:00,194
みちのくトンネル（七戸側）,2022/03/21 22:00,194
みちのくトンネル（七戸側）,2022/03/21 23:00,194
みちのくトンネル（七戸側）,2022/03/22 00:00,194
みちのくトンネル（七戸側）,2022/03/22 01:00,194
みちのくトンネル（七戸側）,2022/03/22 02:00,194
みちのくトンネル（七戸側）,2022/03/22 03:00,194
みちのくトンネル（七戸側）,2022/03/22 04:00,194
みちのくトンネル（七戸側）,2022/03/22 05:00,194
みちのくトンネル（七戸側）,2022/03/22 06:00,193
みちのくトンネル（七戸側）,2022/03/22 07:00,193
みちのくトンネル（七戸側）,2022/03/22 08:00,193
みちのくトンネル（七戸側）,2022/03/22 09:00,193
みちのくトンネル（七戸側）,2022/03/22 10:00,194
みちのくトンネル（七戸側）,2022/03/22 11:00,193
みちのくトンネル（七戸側）,2022/03/22 12:00,192
みちのくトンネル（七戸側）,2022/03/22 13:00,192
みちのくトンネル（七戸側）,2022/03/22 14:00,192
みちのくトンネル（七戸側）,2022/03/22 15:00,191
みちのくトンネル（七戸側）,2022/03/22 16:00,191
みちのくトンネル（七戸側）,2022/03/22 17:00,191
みちのくトンネル（七戸側）,2022/03/22 18:00,191
みちのくトンネル（七戸側）,2022/03/22 19:00,191
みちのくトンネル（七戸側）,2022/03/22 20:00,191
みちのくトンネル（七戸側）,2022/03/22 21:00,191
みちのくトンネル（七戸側）,2022/03/22 22:00,191
みちのくトンネル（七戸側）,2022/03/22 23:00,191
みちのくトンネル（七戸側）,2022/03/23 00:00,191
みちのくトンネル（七戸側）,2022/03/23 01:00,191
みちのくトンネル（七戸側）,2022/03/23 02:00,191
みちのくトンネル（七戸側）,2022/03/23 03:00,191
みちのくトンネル（七戸側）,2022/03/23 04:00,191
みちのくトンネル（七戸側）,2022/03/23 05:00,191
みちのくトンネル（七戸側）,2022/03/23 06:00,191
みちのくトンネル（七戸側）,2022/03/23 07:00,191
みちのくトンネル（七戸側）,2022/03/23 08:00,191
みちのくトンネル（七戸側）,2022/03/23 09:00,191
みちのくトンネル（七戸側）,2022/03/23 10:00,191
みちのくトンネル（七戸側）,2022/03/23 11:00,190
みちのくトンネル（七戸側）,2022/03/23 13:00,189
みちのくトンネル（七戸側）,2022/03/23 14:00,189
みちのくトンネル（七戸側）,2022/03/23 17:00,188
みちのくトンネル（七戸側）,2022/03/23 21:00,188
みちのくトンネル（七戸側）,2022/03/23 22:00,188
みちのくトンネル（七戸側）,2022/03/23 23:00,188
みちのくトンネル（七戸側）,2022/03/24 01:00,188
みちのくトンネル（七戸側）,2022/03/24 02:00,188
みちのくトンネル（七戸側）,2022/03/24 06:00,188
みちのくトンネル（七戸側）,2022/03/24 08:00,188
みちのくトンネル（七戸側）,2022/03/24 09:00,188
みちのくトンネル（七戸側）,2022/03/24 13:00,186
みちのくトンネル（七戸側）,2022/03/24 14:00,184
みちのくトンネル（七戸側）,2022/03/24 15:00,184
みちのくトンネル（七戸側）,2022/03/24 17:00,182
みちのくトンネル（七戸側）,2022/03/24 19:00,182
みちのくトンネル（七戸側）,2022/03/24 22:00,182
みちのくトンネル（七戸側）,2022/03/24 23:00,183
みちのくトンネル（七戸側）,2022/03/25 00:00,182
みちのくトンネル（七戸側）,2022/03/25 02:00,183
みちのくトンネル（七戸側）,2022/03/25 05:00,182
みちのくトンネル（七戸側）,2022/03/25 07:00,182
みちのくトンネル（七戸側）,2022/03/25 09:00,182
みちのくトンネル（七戸側）,2022/03/25 10:00,181
みちのくトンネル（七戸側）,2022/03/25 11:00,181
みちのくトンネル（七戸側）,2022/03/25 12:00,179
みちのくトンネル（七戸側）,2022/04/08 15:00,77
みちのくトンネル（七戸側）,2022/04/08 16:00,76
みちのくトンネル（七戸側）,2022/04/08 17:00,76
みちのくトンネル（七戸側）,2022/04/08 18:00,76
みちのくトンネル（七戸側）,2022/04/08 19:00,76
みちのくトンネル（七戸側）,2022/04/08 20:00,76
みちのくトンネル（七戸側）,2022/04/08 21:00,76
みちのくトンネル（七戸側）,2022/04/08 22:00,76
みちのくトンネル（七戸側）,2022/04/08 23:00,76
みちのくトンネル（七戸側）,2022/04/09 00:00,76
みちのくトンネル（七戸側）,2022/04/09 01:00,76
みちのくトンネル（七戸側）,2022/04/09 02:00,76
みちのくトンネル（七戸側）,2022/04/09 03:00,76
みちのくトンネル（七戸側）,2022/04/09 04:00,76
みちのくトンネル（七戸側）,2022/04/09 05:00,76
みちのくトンネル（七戸側）,2022/04/09 06:00,76
みちのくトンネル（七戸側）,2022/04/09 07:00,76
みちのくトンネル（七戸側）,2022/04/09 08:00,76
みちのくトンネル（七戸側）,2022/04/09 09:00,76
みちのくトンネル（七戸側）,2022/04/09 10:00,74
みちのくトンネル（七戸側）,2022/04/09 11:00,72
みちのくトンネル（七戸側）,2022/04/09 12:00,70
みちのくトンネル（七戸側）,2022/04/09 13:00,68
みちのくトンネル（七戸側）,2022/04/09 14:00,64
みちのくトンネル（七戸側）,2022/04/09 15:00,62
みちのくトンネル（七戸側）,2022/04/09 16:00,60
みちのくトンネル（七戸側）,2022/04/09 17:00,59
みちのくトンネル（七戸側）,2022/04/09 18:00,58
みちのくトンネル（七戸側）,2022/04/09 19:00,58
みちのくトンネル（七戸側）,2022/04/09 20:00,57
みちのくトンネル（七戸側）,2022/04/09 21:00,56
みちのくトンネル（七戸側）,2022/04/09 22:00,57
みちのくトンネル（七戸側）,2022/04/09 23:00,56
みちのくトンネル（七戸側）,2022/04/10 00:00,56
みちのくトンネル（七戸側）,2022/04/10 01:00,56
みちのくトンネル（七戸側）,2022/04/10 02:00,57
みちのくトンネル（七戸側）,2022/04/10 03:00,56
みちのくトンネル（七戸側）,2022/04/10 04:00,56
みちのくトンネル（七戸側）,2022/04/10 05:00,56
みちのくトンネル（七戸側）,2022/04/10 06:00,57
みちのくトンネル（七戸側）,2022/04/10 07:00,56
みちのくトンネル（七戸側）,2022/04/10 08:00,56
みちのくトンネル（七戸側）,2022/04/10 09:00,56
みちのくトンネル（七戸側）,2022/04/10 10:00,54
みちのくトンネル（七戸側）,2022/04/10 11:00,54
みちのくトンネル（七戸側）,2022/04/10 12:00,53
みちのくトンネル（七戸側）,2022/04/10 13:00,52
みちのくトンネル（七戸側）,2022/04/10 14:00,50
みちのくトンネル（七戸側）,2022/04/10 15:00,49
みちのくトンネル（七戸側）,2022/04/10 16:00,48
みちのくトンネル（七戸側）,2022/04/10 17:00,49
みちのくトンネル（七戸側）,2022/04/10 18:00,48
みちのくトンネル（七戸側）,2022/04/10 19:00,48
みちのくトンネル（七戸側）,2022/04/10 20:00,48